Overview Statistics Trail Chart Weather Telemetry Raw packets
 

This is the latest recevied weather packets stored in our database for station/object KM5VY. If no packets are shown the sender has not sent any weather packets the latest 10 day(s).

<< 53 54 55 56 57 58 >>
Time Temp. Humidity Pressure Rain* Wind** Luminosity Snow
1787876359 25° C 38% 1026.1 hPa 0 mm - - -
1787875757 25° C 37% 1026.1 hPa 0 mm - - -
1787875156 24.44° C 38% 1026.1 hPa 0 mm - - -
1787874555 23.89° C 40% 1026.4 hPa 0 mm - - -
1787873954 23.89° C 39% 1026.4 hPa 0 mm - - -
1787873353 23.89° C 40% 1026.4 hPa 0 mm - - -
1787872752 23.33° C 43% 1026.4 hPa 0 mm - - -
1787872151 22.78° C 47% 1026.8 hPa 0 mm - - -
1787871550 23.33° C 44% 1026.8 hPa 0 mm - - -
1787870949 25° C 40% 1027.8 hPa 0 mm - - -
1787870348 26.67° C 36% 1027.4 hPa 0 mm - - -
1787869747 27.78° C 31% 1027.1 hPa 0 mm - - -
1787869146 28.33° C 33% 1026.8 hPa 0 mm - - -
1787868545 28.33° C 30% 1026.8 hPa 0 mm - - -
1787867944 28.89° C 29% 1026.4 hPa 0 mm - - -
1787867343 28.89° C 29% 1026.4 hPa 0 mm - - -
1787866742 28.89° C 29% 1026.8 hPa 0 mm - - -
1787866141 28.33° C 29% 1027.1 hPa 0 mm - - -
1787865540 28.89° C 28% 1027.1 hPa 0 mm - - -
1787864939 30° C 27% 1027.1 hPa 0 mm - - -
1787864338 31.11° C 25% 1027.1 hPa 0 mm - - -
1787863737 32.78° C 24% 1026.8 hPa 0 mm - - -
1787863136 33.33° C 26% 1027.1 hPa 0 mm - - -
1787862535 33.33° C 25% 1027.1 hPa 0 mm - - -
1787861934 33.89° C 25% 1026.8 hPa 0 mm - - -

* Rain latest hour (hover to see other rain measurements)
** Current wind speed in m/s (hover to see current wind gust speed)